Time,TemperatureF,DewpointF,PressureIn,WindDirection,WindDirectionDegrees,WindSpeedMPH,WindSpeedGustMPH,Humidity,HourlyPrecipIn,Conditions,Clouds,dailyrainin,SoftwareType,DateUTC
2013-11-06 00:01:00,49.0,49.0,30.28,ESE,108,0.0,1.0,99,0.01,,,0.57,,2013-11-06 08:01:00,
2013-11-06 00:22:00,50.0,50.0,30.29,ENE,72,0.0,1.0,99,0.01,,,0.57,,2013-11-06 08:22:00,
2013-11-06 00:52:00,50.0,50.0,30.29,ENE,71,0.0,1.0,99,0.01,,,0.56,,2013-11-06 08:52:00,
2013-11-06 01:02:00,50.0,50.0,30.29,ENE,71,0.0,1.0,99,0.01,,,0.56,,2013-11-06 09:02:00,
2013-11-06 01:03:00,50.0,50.0,30.29,ESE,116,0.0,2.0,99,0.01,,,0.56,,2013-11-06 09:03:00,
2013-11-06 01:22:00,50.0,50.0,30.29,ESE,116,0.0,2.0,99,0.01,,,0.56,,2013-11-06 09:22:00,
2013-11-06 01:33:00,50.0,50.0,30.29,ESE,116,0.0,2.0,99,0.01,,,0.56,,2013-11-06 09:33:00,
2013-11-06 01:43:00,50.0,50.0,30.29,ESE,116,0.0,2.0,99,0.01,,,0.56,,2013-11-06 09:43:00,
2013-11-06 01:53:00,50.0,50.0,30.29,ESE,116,0.0,2.0,99,0.01,,,0.56,,2013-11-06 09:53:00,
2013-11-06 02:53:00,50.0,50.0,30.29,ESE,111,0.0,2.0,99,0.01,,,0.46,,2013-11-06 10:53:00,
2013-11-06 03:02:00,50.0,50.0,30.29,ESE,111,0.0,2.0,99,0.01,,,0.46,,2013-11-06 11:02:00,
2013-11-06 03:22:00,50.0,50.0,30.29,East,97,0.0,2.0,99,0.00,,,0.37,,2013-11-06 11:22:00,
2013-11-06 03:42:00,50.0,50.0,30.28,East,97,0.0,1.0,99,0.01,,,0.36,,2013-11-06 11:42:00,
2013-11-06 03:52:00,50.0,50.0,30.28,East,97,0.0,1.0,99,0.01,,,0.36,,2013-11-06 11:52:00,
2013-11-06 04:02:00,50.0,50.0,30.28,East,97,0.0,1.0,99,0.01,,,0.36,,2013-11-06 12:02:00,
2013-11-06 04:22:00,50.0,50.0,30.27,East,98,0.0,2.0,99,0.02,,,0.31,,2013-11-06 12:22:00,
2013-11-06 04:42:00,50.0,50.0,30.27,East,98,0.0,1.0,99,0.03,,,0.31,,2013-11-06 12:42:00,
2013-11-06 04:52:00,50.0,50.0,30.27,East,98,0.0,1.0,99,0.03,,,0.31,,2013-11-06 12:52:00,
2013-11-06 05:22:00,50.0,50.0,30.29,East,98,0.0,0.0,99,0.03,,,0.28,,2013-11-06 13:22:00,
2013-11-06 05:32:00,50.0,50.0,30.29,East,98,0.0,0.0,99,0.03,,,0.28,,2013-11-06 13:32:00,
2013-11-06 05:42:00,50.0,50.0,30.29,East,98,0.0,0.0,99,0.03,,,0.28,,2013-11-06 13:42:00,
2013-11-06 05:52:00,50.0,50.0,30.29,East,97,0.0,1.0,99,0.02,,,0.28,,2013-11-06 13:52:00,
2013-11-06 06:22:00,50.0,50.0,30.28,ESE,115,0.0,1.0,99,0.02,,,0.25,,2013-11-06 14:22:00,
2013-11-06 06:32:00,50.0,50.0,30.28,ESE,115,0.0,1.0,99,0.02,,,0.25,,2013-11-06 14:32:00,
2013-11-06 06:52:00,50.0,50.0,30.29,ESE,115,0.0,1.0,99,0.03,,,0.24,,2013-11-06 14:52:00,
2013-11-06 07:22:00,50.0,50.0,30.29,ESE,115,0.0,0.0,99,0.02,,,0.23,,2013-11-06 15:22:00,
2013-11-06 07:43:00,51.0,51.0,30.29,ESE,115,0.0,1.0,99,0.01,,,0.23,,2013-11-06 15:43:00,
2013-11-06 07:53:00,51.0,51.0,30.29,East,84,0.0,2.0,99,0.01,,,0.23,,2013-11-06 15:53:00,
2013-11-06 08:23:00,52.0,52.0,30.29,SSE,149,0.0,3.0,99,0.01,,,0.23,,2013-11-06 16:23:00,
2013-11-06 08:53:00,52.0,52.0,30.30,West,268,0.0,2.0,99,0.01,,,0.22,,2013-11-06 16:53:00,
2013-11-06 09:22:00,53.0,53.0,30.31,East,82,0.0,3.0,99,0.00,,,0.20,,2013-11-06 17:22:00,
2013-11-06 09:33:00,53.0,53.0,30.31,East,82,0.0,3.0,99,0.00,,,0.20,,2013-11-06 17:33:00,
2013-11-06 09:52:00,53.0,52.0,30.30,ESE,117,1.0,6.0,98,0.00,,,0.19,,2013-11-06 17:52:00,
2013-11-06 10:22:00,54.0,53.0,30.30,ESE,123,2.0,4.0,97,0.00,,,0.19,,2013-11-06 18:22:00,
2013-11-06 10:42:00,55.0,54.0,30.30,SE,125,1.0,4.0,97,0.00,,,0.18,,2013-11-06 18:42:00,
2013-11-06 10:52:00,55.0,54.0,30.30,East,80,1.0,4.0,97,0.00,,,0.18,,2013-11-06 18:52:00,
2013-11-06 11:21:00,56.0,55.0,30.30,East,91,3.0,7.0,95,0.00,,,0.18,,2013-11-06 19:21:00,
2013-11-06 11:32:00,56.0,55.0,30.30,East,91,3.0,7.0,95,0.00,,,0.18,,2013-11-06 19:32:00,
2013-11-06 11:42:00,56.0,55.0,30.30,East,91,3.0,7.0,95,0.00,,,0.18,,2013-11-06 19:42:00,
2013-11-06 11:52:00,58.0,56.0,30.29,East,97,3.0,8.0,93,0.00,,,0.17,,2013-11-06 19:52:00,
2013-11-06 12:21:00,59.0,56.0,30.27,ESE,109,3.0,7.0,91,0.00,,,0.17,,2013-11-06 20:21:00,
2013-11-06 12:52:00,60.0,57.0,30.25,ENE,75,3.0,8.0,89,0.00,,,0.17,,2013-11-06 20:52:00,
2013-11-06 13:02:00,60.0,57.0,30.25,ENE,75,3.0,8.0,89,0.00,,,0.17,,2013-11-06 21:02:00,
2013-11-06 13:21:00,62.0,57.0,30.24,ESE,103,4.0,8.0,85,0.00,,,0.17,,2013-11-06 21:21:00,
2013-11-06 13:54:00,61.0,57.0,30.23,ESE,108,4.0,8.0,86,0.00,,,0.17,,2013-11-06 21:54:00,
2013-11-06 14:23:00,61.0,57.0,30.22,ENE,74,3.0,7.0,86,0.00,,,0.17,,2013-11-06 22:23:00,
2013-11-06 14:53:00,61.0,57.0,30.22,ESE,111,2.0,6.0,87,0.00,,,0.17,,2013-11-06 22:53:00,
2013-11-06 15:02:00,61.0,57.0,30.22,ESE,111,2.0,6.0,87,0.00,,,0.17,,2013-11-06 23:02:00,
2013-11-06 15:22:00,61.0,58.0,30.21,East,95,1.0,3.0,89,0.00,,,0.17,,2013-11-06 23:22:00,
2013-11-06 15:53:00,60.0,58.0,30.20,ENE,78,2.0,4.0,92,0.00,,,0.16,,2013-11-06 23:53:00,
2013-11-06 16:21:00,59.0,56.0,30.19,ESE,107,3.0,8.0,90,0.00,,,0.16,,2013-11-07 00:21:00,
2013-11-06 16:42:00,59.0,57.0,30.19,SSE,155,1.0,6.0,93,0.00,,,0.16,,2013-11-07 00:42:00,
2013-11-06 16:52:00,57.0,56.0,30.19,East,90,0.0,2.0,95,0.00,,,0.16,,2013-11-07 00:52:00,
2013-11-06 17:01:00,57.0,56.0,30.19,East,90,0.0,2.0,95,0.00,,,0.16,,2013-11-07 01:01:00,
2013-11-06 17:21:00,57.0,56.0,30.19,NE,51,0.0,2.0,96,0.00,,,0.16,,2013-11-07 01:21:00,
2013-11-06 17:32:00,57.0,56.0,30.19,NE,51,0.0,2.0,96,0.00,,,0.16,,2013-11-07 01:32:00,
2013-11-06 17:42:00,57.0,56.0,30.19,NE,51,0.0,2.0,96,0.00,,,0.16,,2013-11-07 01:42:00,
2013-11-06 17:52:00,55.0,54.0,30.18,NE,46,0.0,2.0,98,0.00,,,0.15,,2013-11-07 01:52:00,
2013-11-06 18:01:00,55.0,54.0,30.18,NE,46,0.0,2.0,98,0.00,,,0.15,,2013-11-07 02:01:00,
2013-11-06 18:21:00,54.0,53.0,30.18,ENE,72,0.0,1.0,98,0.00,,,0.15,,2013-11-07 02:21:00,
2013-11-06 19:21:00,54.0,54.0,30.17,NE,44,1.0,3.0,99,0.00,,,0.14,,2013-11-07 03:21:00,
2013-11-06 19:44:00,54.0,54.0,30.17,NE,40,0.0,2.0,99,0.00,,,0.14,,2013-11-07 03:44:00,
2013-11-06 19:55:00,54.0,54.0,30.17,NE,40,0.0,2.0,99,0.00,,,0.13,,2013-11-07 03:55:00,
2013-11-06 20:04:00,54.0,54.0,30.17,NE,40,0.0,2.0,99,0.00,,,0.13,,2013-11-07 04:04:00,
2013-11-06 20:24:00,54.0,54.0,30.17,NE,40,0.0,2.0,99,0.00,,,0.13,,2013-11-07 04:24:00,
2013-11-06 20:53:00,53.0,53.0,30.16,ENE,76,1.0,4.0,99,0.00,,,0.13,,2013-11-07 04:53:00,
2013-11-06 21:23:00,53.0,53.0,30.15,ENE,76,0.0,1.0,99,0.00,,,0.13,,2013-11-07 05:23:00,
2013-11-06 21:44:00,53.0,53.0,30.15,NE,45,1.0,2.0,99,0.00,,,0.13,,2013-11-07 05:44:00,
2013-11-06 21:54:00,53.0,53.0,30.16,NNW,332,1.0,2.0,99,0.00,,,0.13,,2013-11-07 05:54:00,
2013-11-06 22:23:00,52.0,52.0,30.16,NNE,21,0.0,1.0,99,0.00,,,0.13,,2013-11-07 06:23:00,
2013-11-06 22:52:00,52.0,52.0,30.14,NE,37,1.0,3.0,99,0.00,,,0.13,,2013-11-07 06:52:00,
2013-11-06 23:02:00,52.0,52.0,30.14,NE,37,1.0,3.0,99,0.00,,,0.13,,2013-11-07 07:02:00,
2013-11-06 23:11:00,52.0,52.0,30.14,NE,37,1.0,3.0,99,0.00,,,0.13,,2013-11-07 07:11:00,
2013-11-06 23:21:00,52.0,52.0,30.14,NE,37,1.0,3.0,99,0.00,,,0.13,,2013-11-07 07:21:00,
2013-11-06 23:32:00,52.0,52.0,30.14,NE,37,1.0,3.0,99,0.00,,,0.13,,2013-11-07 07:32:00,
2013-11-06 23:52:00,52.0,52.0,30.13,NE,52,0.0,2.0,99,0.00,,,0.12,,2013-11-07 07:52:00,